Stations météo

réclame
Mon MeteoGroup
Girona/Costa Brava, Espagne (8184): Température de l'air & dewpoint: 05.12.2018 08:00:00 - 11.12.2018 08:00:00 (CET)Girona/Costa Brava, Espagne (8184): Vitesse du vent: 05.12.2018 08:00:00 - 11.12.2018 08:00:00 (CET)Girona/Costa Brava, Espagne (8184): Direction du vent: 05.12.2018 08:00:00 - 11.12.2018 08:00:00 (CET)Girona/Costa Brava, Espagne (8184): reduced air pressure: 05.12.2018 08:00:00 - 11.12.2018 08:00:00 (CET)Girona/Costa Brava, Espagne (8184): visibility: 05.12.2018 08:00:00 - 11.12.2018 08:00:00 (CET)
Date & Time tt [°C] td [°C] ff [km/h] ff [knt] dd ppp [hPa] vv [km]
11.12.2018 08:00:00 - - - - - - -
11.12.2018 07:00:00 1,7 1,6 2 1 ENE 1023,4 -
11.12.2018 06:00:00 1,6 1,5 0 0 N 1023,8 -
11.12.2018 05:00:00 2,0 1,9 8 4 NNE 1024,2 -
11.12.2018 04:00:00 1,8 1,5 0 0 N 1024,4 -
11.12.2018 03:00:00 1,8 1,5 4 2 NNE 1025,0 -
11.12.2018 02:00:00 2,6 2,3 4 2 S 1025,3 -
11.12.2018 01:00:00 3,3 2,9 8 4 W 1025,9 -
11.12.2018 00:00:00 3,5 2,9 0 0 N 1026,6 -
10.12.2018 23:00:00 4,7 4,3 0 0 N 1026,7 -
10.12.2018 22:00:00 4,8 4,2 0 0 N 1026,9 -
10.12.2018 21:00:00 4,6 3,6 4 2 NNE 1027,2 -
10.12.2018 20:00:00 6,3 5,0 4 2 NE 1027,0 -
10.12.2018 19:00:00 8,5 6,8 5 3 SW 1026,7 15
10.12.2018 18:00:00 8,9 6,0 2 1 ESE 1026,8 -
10.12.2018 17:00:00 12,2 6,9 5 3 WSW 1026,2 -
10.12.2018 16:00:00 15,2 6,8 0 0 N 1026,2 9
10.12.2018 15:00:00 15,2 5,9 8 4 NNE 1026,5 -
10.12.2018 14:00:00 14,4 6,9 4 2 NNE 1027,0 -
10.12.2018 13:00:00 12,5 7,8 2 1 SSE 1027,7 20
10.12.2018 12:00:00 10,5 7,2 2 1 ENE 1028,5 -
10.12.2018 11:00:00 8,1 6,7 0 0 N 1029,3 -
10.12.2018 10:00:00 6,1 5,5 0 0 N 1029,4 30
10.12.2018 09:00:00 4,5 3,8 0 0 N 1028,9 -
10.12.2018 08:00:00 4,9 4,0 0 0 N 1028,4 -
10.12.2018 07:00:00 5,3 3,7 0 0 N 1028,0 -
10.12.2018 06:00:00 7,8 5,0 8 4 NNW 1027,7 -
10.12.2018 05:00:00 6,0 4,5 4 2 NNE 1027,6 -
10.12.2018 04:00:00 6,6 6,5 8 4 NNW 1027,9 -
10.12.2018 03:00:00 4,5 4,2 0 0 N 1027,9 -
10.12.2018 02:00:00 4,6 4,2 0 0 N 1027,6 -
10.12.2018 01:00:00 5,2 4,9 0 0 N 1027,4 -
10.12.2018 00:00:00 5,1 4,7 4 2 N 1027,4 -
09.12.2018 23:00:00 5,5 4,8 4 2 WSW 1026,7 -
09.12.2018 22:00:00 6,5 5,8 0 0 N 1026,5 -
09.12.2018 21:00:00 6,9 5,7 4 2 NNE 1025,8 -
09.12.2018 20:00:00 7,8 6,5 0 0 N 1024,5 -
09.12.2018 19:00:00 9,1 6,4 2 1 NE 1024,0 -
09.12.2018 18:00:00 12,2 7,9 8 4 WSW 1023,0 -
09.12.2018 17:00:00 14,6 7,9 4 2 SSE 1022,0 -
09.12.2018 16:00:00 17,7 9,3 8 4 E 1021,6 -
09.12.2018 15:00:00 18,6 8,3 2 1 S 1020,8 -
09.12.2018 14:00:00 17,3 8,1 8 4 ENE 1021,1 -
09.12.2018 13:00:00 16,3 9,2 5 3 SSE 1021,4 -
09.12.2018 12:00:00 14,0 8,4 0 0 N 1022,8 -
09.12.2018 11:00:00 10,5 7,7 4 2 S 1023,9 -
09.12.2018 10:00:00 7,9 6,2 5 3 S 1024,1 -
09.12.2018 09:00:00 4,2 4,1 4 2 SSE 1024,1 -
09.12.2018 08:00:00 1,6 1,5 2 1 NW 1024,0 -
09.12.2018 07:00:00 2,0 1,9 0 0 N 1023,5 -
09.12.2018 06:00:00 3,1 3,0 8 4 N 1023,4 -
09.12.2018 05:00:00 2,3 2,1 8 4 NE 1023,5 -
09.12.2018 04:00:00 3,1 2,8 2 1 NNE 1023,9 -
09.12.2018 03:00:00 2,9 2,5 4 2 SW 1024,2 -
09.12.2018 02:00:00 3,5 3,1 0 0 N 1024,4 -
09.12.2018 01:00:00 4,2 3,8 0 0 N 1024,6 -
09.12.2018 00:00:00 4,3 3,6 0 0 N 1025,0 -
08.12.2018 23:00:00 5,1 4,5 5 3 WSW 1025,2 -
08.12.2018 22:00:00 5,7 4,7 5 3 SSW 1025,6 -
08.12.2018 21:00:00 6,9 5,2 4 2 WSW 1025,5 -
08.12.2018 20:00:00 7,2 5,7 0 0 N 1025,9 -
08.12.2018 19:00:00 8,8 6,2 2 1 NW 1025,5 20
08.12.2018 18:00:00 9,7 7,0 5 3 NW 1025,4 -
08.12.2018 17:00:00 12,8 8,0 4 2 NW 1025,4 -
08.12.2018 16:00:00 14,1 9,1 4 2 NNW 1025,3 20
08.12.2018 15:00:00 14,9 9,7 4 2 NNE 1025,1 -
08.12.2018 14:00:00 15,7 9,3 4 2 NE 1025,1 -
08.12.2018 13:00:00 14,4 7,9 5 3 ENE 1025,9 18
08.12.2018 12:00:00 12,5 8,4 5 3 SE 1026,3 -
08.12.2018 11:00:00 11,4 8,8 8 4 SSW 1026,2 -
08.12.2018 10:00:00 9,8 7,9 0 0 N 1025,9 25
08.12.2018 09:00:00 8,3 6,9 4 2 W 1025,7 -
08.12.2018 08:00:00 6,0 5,4 4 2 NE 1024,9 -
08.12.2018 07:00:00 7,5 6,8 8 4 NNW 1024,1 -
08.12.2018 06:00:00 7,5 7,2 9 5 N 1023,8 -
08.12.2018 05:00:00 6,2 6,1 8 4 NE 1023,8 -
08.12.2018 04:00:00 5,6 5,5 4 2 NNE 1024,1 -
08.12.2018 03:00:00 5,5 5,2 4 2 N 1023,9 -
08.12.2018 02:00:00 5,1 4,8 9 5 NNE 1023,5 -
08.12.2018 01:00:00 5,7 5,1 0 0 N 1023,1 -
08.12.2018 00:00:00 6,6 6,3 2 1 E 1023,5 -
07.12.2018 23:00:00 4,6 3,6 5 3 NE 1022,9 -
07.12.2018 22:00:00 6,4 5,8 8 4 WNW 1022,5 -
07.12.2018 21:00:00 6,7 5,8 4 2 SSW 1022,3 -
07.12.2018 20:00:00 7,6 6,2 4 2 ENE 1022,3 -
07.12.2018 19:00:00 9,6 7,4 9 5 NW 1022,0 -
07.12.2018 18:00:00 10,5 7,9 8 4 NNW 1022,0 -
07.12.2018 17:00:00 11,5 8,4 8 4 NNW 1021,3 -
07.12.2018 16:00:00 14,0 9,2 8 4 NW 1021,0 -
07.12.2018 15:00:00 16,0 10,3 5 3 NNE 1020,9 -
07.12.2018 14:00:00 16,2 10,5 2 1 S 1022,0 -
07.12.2018 13:00:00 14,9 10,6 0 0 N 1022,7 -
07.12.2018 12:00:00 12,5 9,9 2 1 ENE 1023,9 -
07.12.2018 11:00:00 9,6 9,5 4 2 S 1024,6 -
07.12.2018 10:00:00 6,7 6,7 0 0 N 1024,9 -
07.12.2018 09:00:00 4,9 4,9 0 0 N 1024,7 -
07.12.2018 08:00:00 3,3 3,3 4 2 SW 1024,7 -
07.12.2018 07:00:00 3,8 3,8 0 0 N 1024,9 -
07.12.2018 06:00:00 3,5 3,4 4 2 ENE 1025,1 -
07.12.2018 05:00:00 4,4 4,3 0 0 N 1025,2 -
07.12.2018 04:00:00 5,1 5,0 0 0 N 1025,5 -
07.12.2018 03:00:00 6,4 6,4 4 2 WSW 1025,8 -
07.12.2018 02:00:00 6,4 6,3 4 2 NNE 1025,8 -
07.12.2018 01:00:00 7,4 7,3 0 0 N 1026,5 -
07.12.2018 00:00:00 7,8 7,7 4 2 W 1026,8 -
06.12.2018 23:00:00 7,9 7,7 0 0 N 1026,7 -
06.12.2018 22:00:00 8,8 8,5 2 1 WNW 1026,5 2,0
06.12.2018 21:00:00 9,0 8,5 0 0 N 1026,4 -
06.12.2018 20:00:00 9,6 9,0 4 2 E 1026,3 -
06.12.2018 19:00:00 11,9 10,6 5 3 WSW 1025,6 28
06.12.2018 18:00:00 13,5 11,4 8 4 SW 1025,2 -
06.12.2018 17:00:00 15,8 11,7 4 2 SSW 1024,3 -
06.12.2018 16:00:00 18,2 11,9 9 5 E 1024,0 28
06.12.2018 15:00:00 18,7 12,4 8 4 E 1023,7 -
06.12.2018 14:00:00 18,4 11,4 5 3 SSW 1023,6 -
06.12.2018 13:00:00 16,6 11,6 9 5 SSW 1024,4 -
06.12.2018 12:00:00 14,5 11,0 5 3 S 1025,6 -
06.12.2018 11:00:00 12,1 10,0 4 2 SW 1026,2 -
06.12.2018 10:00:00 10,2 9,3 5 3 S 1026,0 -
06.12.2018 09:00:00 8,7 8,6 2 1 WNW 1025,9 -
06.12.2018 08:00:00 6,2 6,1 - - - 1025,4 -
06.12.2018 07:00:00 7,0 6,6 0 0 N 1024,5 -
06.12.2018 06:00:00 8,3 7,9 2 1 ENE 1024,1 -
06.12.2018 05:00:00 8,9 8,5 9 5 W 1024,1 -
06.12.2018 04:00:00 10,1 9,9 0 0 N 1024,2 -
06.12.2018 03:00:00 9,8 9,7 4 2 SSW 1024,1 -
06.12.2018 02:00:00 10,3 10,1 8 4 NW 1023,9 -
06.12.2018 01:00:00 11,1 11,1 8 4 NNW 1023,9 -
06.12.2018 00:00:00 10,0 9,8 5 3 NNE 1023,9 -
05.12.2018 23:00:00 7,4 7,1 2 1 NNE 1023,6 -
05.12.2018 22:00:00 8,6 8,3 5 3 WNW 1023,1 -
05.12.2018 21:00:00 9,9 9,6 4 2 NNW 1022,8 -
05.12.2018 20:00:00 9,6 9,0 2 1 S 1022,3 -
05.12.2018 19:00:00 10,8 9,9 0 0 N 1022,2 -
05.12.2018 18:00:00 11,6 10,8 0 0 N 1022,0 -
05.12.2018 17:00:00 14,2 11,7 0 0 N 1021,8 -
05.12.2018 16:00:00 17,2 12,7 0 0 N 1021,7 -
05.12.2018 15:00:00 17,6 12,9 4 2 S 1021,6 -
05.12.2018 14:00:00 17,0 12,3 5 3 S 1022,0 -
05.12.2018 13:00:00 14,5 12,4 2 1 N 1022,8 -
05.12.2018 12:00:00 12,5 11,6 4 2 ESE 1023,7 -
05.12.2018 11:00:00 12,5 9,9 0 0 N 1024,3 -
05.12.2018 10:00:00 8,6 8,6 0 0 N 1024,4 0,5
05.12.2018 09:00:00 5,2 5,2 0 0 N 1024,4 -
05.12.2018 08:00:00 3,7 3,6 0 0 N 1024,1 -

tt = Température de l'air
td = dewpoint
ff = Vitesse du vent
dd = Direction du vent
ppp = reduced air pressure
vv = visibility

stations d'obs. à proximité